Location: Góry Miechowskie
(50.3599°N, 20.1803°E)
Time: 15:54:22
(UTC+00:00)

Vanguard 1 Rocket - Pass Details

Date: 15 September 2024
Orbit: 650 x 4218 km, 34.3° (Epoch: 07 October)

Event Time Altitude Azimuth Distance (km) Brightness Sun altitude
Rises 00:57:46 0° 202° (SSW) 5,304 - -28.5°
Reaches altitude 10° 01:01:25 10° 191° (S) 4,765 - -28.1°
Exits shadow 01:05:01 19° 177° (S) 4,458 10.5 -27.8°
Maximum altitude 01:13:03 29° 138° (SE) 4,632 10.9 -26.9°
Drops below altitude 10° 01:30:21 10° 90° (E) 7,184 12.6 -24.8°
Sets 01:37:41 0° 82° (E) 8,429 13.3 -23.9°
